VOZ1694 YAYE-YBBN

Flight info

Callsign VOZ1694
Flight time 2h 29m
Altitude 37000
Route N0450F370 DCT AYE W408 AS T11 NONET/N0444F390 T11 ROM Y166 IDLEG V327 IGUPI Y340 LAMUG Y177 SMOKA DCT
Aircraft B737/M-SDE2E3FGHIRWXY/LB1

Departure

Time 2026-05-04 02:01
Airport Ayers Rock Connellan Airport (YAYE)

Arrival

Time 2026-05-04 04:31
Airport Brisbane International Airport (YBBN)
Time Latitude Longitude Altitude Speed Heading
2026-05-04 01:39 -25.19040 130.97732 1629 ft 0 kts 265°
2026-05-04 01:55 -25.19039 130.97724 1630 ft 2 kts 292°
2026-05-04 01:56 -25.19027 130.97720 1632 ft 2 kts 360°
2026-05-04 01:56 -25.19006 130.97725 1633 ft 5 kts 10°
2026-05-04 01:56 -25.18968 130.97722 1629 ft 6 kts 356°
2026-05-04 01:56 -25.18922 130.97744 1632 ft 9 kts 39°
2026-05-04 01:57 -25.18869 130.97791 1630 ft 11 kts 38°
2026-05-04 01:57 -25.18807 130.97847 1630 ft 12 kts 39°
2026-05-04 01:57 -25.18737 130.97894 1630 ft 12 kts 354°
2026-05-04 01:57 -25.18680 130.97832 1631 ft 12 kts 308°
2026-05-04 01:58 -25.18603 130.97732 1636 ft 18 kts 310°
2026-05-04 01:58 -25.18523 130.97626 1636 ft 18 kts 309°
2026-05-04 01:58 -25.18441 130.97514 1637 ft 19 kts 309°
2026-05-04 01:58 -25.18357 130.97403 1637 ft 20 kts 311°
2026-05-04 01:59 -25.18261 130.97278 1633 ft 22 kts 310°
2026-05-04 01:59 -25.18161 130.97140 1632 ft 24 kts 309°
2026-05-04 01:59 -25.18048 130.96993 1633 ft 25 kts 309°
2026-05-04 01:59 -25.17942 130.96849 1632 ft 23 kts 309°
2026-05-04 02:00 -25.17860 130.96731 1633 ft 13 kts 286°
2026-05-04 02:00 -25.17837 130.96658 1635 ft 7 kts 339°
2026-05-04 02:00 -25.17819 130.96684 1635 ft 5 kts 95°
2026-05-04 02:00 -25.17844 130.96721 1633 ft 9 kts 129°
2026-05-04 02:01 -25.18004 130.96933 1632 ft 70 kts 129°
2026-05-04 02:01 -25.18456 130.97535 1636 ft 130 kts 129°
2026-05-04 02:01 -25.19133 130.98433 1783 ft 163 kts 129°
2026-05-04 02:01 -25.19838 130.99391 2509 ft 162 kts 129°
2026-05-04 02:02 -25.20552 131.00396 3054 ft 176 kts 130°
2026-05-04 02:02 -25.21203 131.01647 3299 ft 206 kts 103°
2026-05-04 02:02 -25.20963 131.03316 3521 ft 240 kts 70°
2026-05-04 02:02 -25.20194 131.05042 3992 ft 257 kts 66°
2026-05-04 02:03 -25.19382 131.06808 4866 ft 255 kts 65°
2026-05-04 02:03 -25.18586 131.08575 5619 ft 262 kts 64°
2026-05-04 02:03 -25.17770 131.10427 6232 ft 273 kts 64°
2026-05-04 02:03 -25.16938 131.12359 6866 ft 283 kts 63°
2026-05-04 02:04 -25.16099 131.14340 7670 ft 287 kts 63°
2026-05-04 02:04 -25.15258 131.16353 8376 ft 295 kts 64°
2026-05-04 02:04 -25.14405 131.18425 9265 ft 298 kts 64°
2026-05-04 02:04 -25.13539 131.20541 10032 ft 306 kts 64°
2026-05-04 02:05 -25.12643 131.22741 10467 ft 326 kts 64°
2026-05-04 02:05 -25.11679 131.25111 10804 ft 347 kts 64°
2026-05-04 02:05 -25.10684 131.27572 11506 ft 353 kts 64°
2026-05-04 02:05 -25.09682 131.30054 12349 ft 355 kts 65°
2026-05-04 02:06 -25.08673 131.32555 13168 ft 359 kts 65°
2026-05-04 02:06 -25.07652 131.35088 13958 ft 364 kts 65°
2026-05-04 02:06 -25.06616 131.37655 14698 ft 368 kts 65°
2026-05-04 02:06 -25.05570 131.40245 15450 ft 372 kts 65°
2026-05-04 02:07 -25.04510 131.42871 16170 ft 378 kts 65°
2026-05-04 02:07 -25.03431 131.45538 16884 ft 383 kts 65°
2026-05-04 02:07 -25.02337 131.48242 17606 ft 389 kts 65°
2026-05-04 02:07 -25.01229 131.50980 18329 ft 394 kts 65°
2026-05-04 02:08 -25.00102 131.53762 18982 ft 399 kts 65°
2026-05-04 02:08 -24.98964 131.56568 19621 ft 403 kts 65°
2026-05-04 02:08 -24.97815 131.59401 20289 ft 407 kts 64°
2026-05-04 02:08 -24.96669 131.62223 20912 ft 411 kts 64°
2026-05-04 02:09 -24.95494 131.65116 21537 ft 416 kts 64°
2026-05-04 02:09 -24.94300 131.68054 22142 ft 421 kts 64°
2026-05-04 02:09 -24.93098 131.71009 22749 ft 425 kts 64°
2026-05-04 02:09 -24.91881 131.74000 23348 ft 429 kts 64°
2026-05-04 02:10 -24.90652 131.77018 23915 ft 434 kts 64°
2026-05-04 02:10 -24.89412 131.80061 24426 ft 436 kts 64°
2026-05-04 02:10 -24.88180 131.83082 24958 ft 439 kts 64°
2026-05-04 02:10 -24.86924 131.86158 25465 ft 442 kts 63°
2026-05-04 02:11 -24.85655 131.89267 25950 ft 446 kts 63°
2026-05-04 02:11 -24.84378 131.92390 26422 ft 449 kts 63°
2026-05-04 02:11 -24.83092 131.95535 26890 ft 452 kts 63°
2026-05-04 02:11 -24.81793 131.98708 27353 ft 456 kts 63°
2026-05-04 02:12 -24.80487 132.01897 27821 ft 458 kts 63°
2026-05-04 02:12 -24.79170 132.05109 28266 ft 462 kts 63°
2026-05-04 02:12 -24.77845 132.08339 28707 ft 465 kts 63°
2026-05-04 02:12 -24.76511 132.11589 29137 ft 468 kts 62°
2026-05-04 02:13 -24.75165 132.14865 29557 ft 471 kts 62°
2026-05-04 02:13 -24.73810 132.18161 29969 ft 474 kts 62°
2026-05-04 02:13 -24.72448 132.21474 30351 ft 477 kts 62°
2026-05-04 02:13 -24.71187 132.24863 30739 ft 481 kts 69°
2026-05-04 02:14 -24.70412 132.28445 31201 ft 484 kts 78°
2026-05-04 02:14 -24.70128 132.32153 31543 ft 488 kts 85°
2026-05-04 02:14 -24.69992 132.35910 31794 ft 493 kts 85°
2026-05-04 02:14 -24.69920 132.39640 32021 ft 498 kts 87°
2026-05-04 02:15 -24.69931 132.43470 32260 ft 502 kts 88°
2026-05-04 02:15 -24.69984 132.47321 32546 ft 505 kts 88°
2026-05-04 02:15 -24.70047 132.51180 32919 ft 505 kts 88°
2026-05-04 02:15 -24.70106 132.55044 33306 ft 504 kts 88°
2026-05-04 02:16 -24.70154 132.58901 33672 ft 504 kts 87°
2026-05-04 02:16 -24.70192 132.62763 33981 ft 505 kts 86°
2026-05-04 02:16 -24.70220 132.66646 34126 ft 510 kts 86°
2026-05-04 02:16 -24.70243 132.70562 34321 ft 513 kts 86°
2026-05-04 02:17 -24.70264 132.74487 34611 ft 513 kts 86°
2026-05-04 02:17 -24.70284 132.78411 34959 ft 512 kts 86°
2026-05-04 02:17 -24.70304 132.82321 35308 ft 510 kts 86°
2026-05-04 02:17 -24.70324 132.86226 35599 ft 510 kts 86°
2026-05-04 02:18 -24.70336 132.88802 35780 ft 510 kts 86°
2026-05-04 02:18 -24.70354 132.92701 36037 ft 510 kts 86°
2026-05-04 02:18 -24.70370 132.96604 36266 ft 511 kts 86°
2026-05-04 02:18 -24.70390 133.01795 36505 ft 513 kts 86°
2026-05-04 02:19 -24.70417 133.09702 36733 ft 520 kts 85°
2026-05-04 02:19 -24.70429 133.13689 36973 ft 520 kts 85°
2026-05-04 02:19 -24.70438 133.16324 37149 ft 519 kts 85°
2026-05-04 02:20 -24.70459 133.24310 37197 ft 525 kts 85°
2026-05-04 02:20 -24.70477 133.32317 37212 ft 522 kts 85°
2026-05-04 02:21 -24.70491 133.40295 37222 ft 520 kts 85°
2026-05-04 02:21 -24.70499 133.48239 37215 ft 519 kts 85°
2026-05-04 02:22 -24.70500 133.56230 37234 ft 527 kts 85°
2026-05-04 02:22 -24.70495 133.64321 37219 ft 537 kts 85°
2026-05-04 02:23 -24.70491 133.72564 37217 ft 541 kts 85°
2026-05-04 02:23 -24.70484 133.80915 37211 ft 543 kts 85°
2026-05-04 02:24 -24.70472 133.89180 37207 ft 544 kts 84°
2026-05-04 02:24 -24.70455 133.97504 37215 ft 544 kts 84°
2026-05-04 02:25 -24.70432 134.05829 37225 ft 543 kts 84°
2026-05-04 02:25 -24.70405 134.14120 37213 ft 541 kts 84°
2026-05-04 02:26 -24.70374 134.22331 37214 ft 540 kts 84°
2026-05-04 02:26 -24.70337 134.30573 37212 ft 538 kts 84°
2026-05-04 02:27 -24.70296 134.38795 37217 ft 537 kts 84°
2026-05-04 02:27 -24.70250 134.47014 37205 ft 538 kts 83°
2026-05-04 02:28 -24.70199 134.55242 37218 ft 538 kts 83°
2026-05-04 02:28 -24.70144 134.63484 37197 ft 540 kts 83°
2026-05-04 02:29 -24.70085 134.71759 37217 ft 541 kts 83°
2026-05-04 02:29 -24.70021 134.80048 37218 ft 542 kts 83°
2026-05-04 02:30 -24.69953 134.88309 37212 ft 543 kts 83°
2026-05-04 02:30 -24.69880 134.96633 37209 ft 544 kts 83°
2026-05-04 02:31 -24.69803 135.04957 37197 ft 544 kts 83°
2026-05-04 02:31 -24.69720 135.13280 37213 ft 545 kts 83°
2026-05-04 02:32 -24.69633 135.21619 37206 ft 545 kts 83°
2026-05-04 02:32 -24.69541 135.29961 37207 ft 545 kts 83°
2026-05-04 02:33 -24.69446 135.38243 37202 ft 545 kts 83°
2026-05-04 02:33 -24.69345 135.46581 37203 ft 545 kts 83°
2026-05-04 02:34 -24.69239 135.54930 37204 ft 545 kts 82°
2026-05-04 02:34 -24.69129 135.63268 37197 ft 545 kts 82°
2026-05-04 02:35 -24.69014 135.71621 37201 ft 545 kts 82°
2026-05-04 02:35 -24.68895 135.79905 37194 ft 546 kts 82°
2026-05-04 02:36 -24.68771 135.88262 37200 ft 546 kts 82°
2026-05-04 02:36 -24.68642 135.96613 37188 ft 546 kts 82°
2026-05-04 02:37 -24.68509 136.04954 37193 ft 546 kts 82°
2026-05-04 02:37 -24.68372 136.13244 37195 ft 546 kts 82°
2026-05-04 02:38 -24.68229 136.21602 37192 ft 546 kts 82°
2026-05-04 02:38 -24.68081 136.29953 37195 ft 546 kts 82°
2026-05-04 02:39 -24.67929 136.38309 37189 ft 547 kts 82°
2026-05-04 02:39 -24.67773 136.46674 37192 ft 547 kts 82°
2026-05-04 02:40 -24.67611 136.55043 37182 ft 547 kts 82°
2026-05-04 02:40 -24.67446 136.63402 37181 ft 547 kts 82°
2026-05-04 02:41 -24.67275 136.71763 37187 ft 547 kts 82°
2026-05-04 02:41 -24.67101 136.80074 37180 ft 547 kts 82°
2026-05-04 02:42 -24.66920 136.88453 37185 ft 547 kts 82°
2026-05-04 02:42 -24.66736 136.96830 37182 ft 548 kts 82°
2026-05-04 02:43 -24.66546 137.05200 37181 ft 547 kts 82°
2026-05-04 02:43 -24.66353 137.13562 37158 ft 547 kts 82°
2026-05-04 02:44 -24.66156 137.21865 37174 ft 546 kts 82°
2026-05-04 02:44 -24.65952 137.30265 37182 ft 546 kts 81°
2026-05-04 02:45 -24.65745 137.38606 37180 ft 546 kts 81°
2026-05-04 02:45 -24.65534 137.46899 37180 ft 546 kts 81°
2026-05-04 02:46 -24.65318 137.55238 37176 ft 545 kts 81°
2026-05-04 02:46 -24.65099 137.63574 37179 ft 545 kts 82°
2026-05-04 02:47 -24.65802 137.71951 37173 ft 558 kts 98°
2026-05-04 02:47 -24.67605 137.80273 37170 ft 559 kts 100°
2026-05-04 02:48 -24.69451 137.88509 37159 ft 558 kts 99°
2026-05-04 02:48 -24.71248 137.96860 37169 ft 557 kts 99°
2026-05-04 02:49 -24.72970 138.05109 37170 ft 557 kts 98°
2026-05-04 02:49 -24.74689 138.13413 37174 ft 556 kts 98°
2026-05-04 02:50 -24.76406 138.21712 37172 ft 556 kts 98°
2026-05-04 02:50 -24.78123 138.30011 37172 ft 556 kts 98°
2026-05-04 02:51 -24.79836 138.38308 37170 ft 556 kts 98°
2026-05-04 02:51 -24.81544 138.46607 37163 ft 555 kts 98°
2026-05-04 02:52 -24.83245 138.54901 37169 ft 555 kts 98°
2026-05-04 02:52 -24.84941 138.63195 37165 ft 555 kts 98°
2026-05-04 02:53 -24.86621 138.71436 37168 ft 555 kts 98°
2026-05-04 02:53 -24.88310 138.79743 37166 ft 555 kts 98°
2026-05-04 02:54 -24.89990 138.88029 37156 ft 555 kts 98°
2026-05-04 02:54 -24.91665 138.96318 37164 ft 554 kts 98°
2026-05-04 02:55 -24.94167 139.08748 37160 ft 554 kts 98°
2026-05-04 02:56 -24.95830 139.17037 37161 ft 554 kts 98°
2026-05-04 02:56 -24.97487 139.25323 37159 ft 554 kts 98°
2026-05-04 02:57 -24.99140 139.33615 37157 ft 553 kts 98°
2026-05-04 02:57 -25.00787 139.41905 37160 ft 553 kts 98°
2026-05-04 02:58 -25.02429 139.50192 37158 ft 553 kts 98°
2026-05-04 02:58 -25.04055 139.58422 37156 ft 553 kts 98°
2026-05-04 02:59 -25.05688 139.66716 37122 ft 553 kts 98°
2026-05-04 02:59 -25.07315 139.75000 37155 ft 552 kts 97°
2026-05-04 03:00 -25.08935 139.83280 37150 ft 552 kts 97°
2026-05-04 03:00 -25.10552 139.91567 37154 ft 552 kts 97°
2026-05-04 03:01 -25.12161 139.99843 37148 ft 552 kts 97°
2026-05-04 03:01 -25.13768 140.08133 37146 ft 552 kts 97°
2026-05-04 03:02 -25.15370 140.16418 37144 ft 552 kts 97°
2026-05-04 03:02 -25.16959 140.24669 37142 ft 553 kts 97°
2026-05-04 03:03 -25.18555 140.32979 37150 ft 553 kts 97°
2026-05-04 03:03 -25.20146 140.41288 37140 ft 553 kts 97°
2026-05-04 03:04 -25.21734 140.49606 37138 ft 553 kts 97°
2026-05-04 03:04 -25.23050 140.56523 37143 ft 553 kts 97°
2026-05-04 03:05 -25.24897 140.66258 37145 ft 554 kts 97°
2026-05-04 03:05 -25.26207 140.73186 37143 ft 554 kts 97°
2026-05-04 03:06 -25.27778 140.81523 37146 ft 554 kts 97°
2026-05-04 03:06 -25.29345 140.89863 37138 ft 554 kts 97°
2026-05-04 03:07 -25.30908 140.98205 37142 ft 555 kts 97°
2026-05-04 03:07 -25.32458 141.06513 37141 ft 555 kts 97°
2026-05-04 03:08 -25.34013 141.14863 37142 ft 555 kts 97°
2026-05-04 03:08 -25.35567 141.23239 37146 ft 555 kts 97°
2026-05-04 03:09 -25.37113 141.31603 37138 ft 555 kts 97°
2026-05-04 03:09 -25.38657 141.39982 37135 ft 555 kts 97°
2026-05-04 03:10 -25.40194 141.48350 37140 ft 555 kts 97°
2026-05-04 03:10 -25.41718 141.56676 37106 ft 555 kts 97°
2026-05-04 03:11 -25.43254 141.65091 37131 ft 554 kts 97°
2026-05-04 03:11 -25.44764 141.73400 37132 ft 554 kts 97°
2026-05-04 03:12 -25.46280 141.81766 37132 ft 554 kts 97°
2026-05-04 03:12 -25.47792 141.90138 37134 ft 554 kts 97°
2026-05-04 03:13 -25.49297 141.98500 37130 ft 554 kts 96°
2026-05-04 03:13 -25.50796 142.06862 37116 ft 554 kts 96°
2026-05-04 03:14 -25.52294 142.15237 37119 ft 554 kts 96°
2026-05-04 03:14 -25.53777 142.23564 37120 ft 555 kts 96°
2026-05-04 03:15 -25.55266 142.31949 37113 ft 555 kts 96°
2026-05-04 03:15 -25.56749 142.40336 37119 ft 555 kts 96°
2026-05-04 03:16 -25.58230 142.48736 37109 ft 556 kts 96°
2026-05-04 03:16 -25.59709 142.57152 37109 ft 557 kts 96°
2026-05-04 03:17 -25.61185 142.65584 37111 ft 557 kts 96°
2026-05-04 03:17 -25.62655 142.74010 37106 ft 558 kts 96°
2026-05-04 03:18 -25.64117 142.82416 37093 ft 558 kts 96°
2026-05-04 03:18 -25.65579 142.90859 37093 ft 558 kts 96°
2026-05-04 03:19 -25.67039 142.99314 37094 ft 558 kts 96°
2026-05-04 03:19 -25.68493 143.07766 37092 ft 558 kts 96°
2026-05-04 03:20 -25.69942 143.16221 37075 ft 558 kts 96°
2026-05-04 03:20 -25.71384 143.24671 37086 ft 558 kts 96°
2026-05-04 03:21 -25.72826 143.33142 37079 ft 558 kts 96°
2026-05-04 03:21 -25.74260 143.41603 37066 ft 558 kts 96°
2026-05-04 03:22 -25.75689 143.50063 37059 ft 557 kts 96°
2026-05-04 03:22 -25.77110 143.58508 37062 ft 557 kts 96°
2026-05-04 03:23 -25.78517 143.66901 37046 ft 556 kts 96°
2026-05-04 03:23 -25.79927 143.75339 37066 ft 556 kts 96°
2026-05-04 03:24 -25.81333 143.83786 37049 ft 556 kts 96°
2026-05-04 03:24 -25.82732 143.92226 37055 ft 555 kts 96°
2026-05-04 03:25 -25.84125 144.00658 37060 ft 555 kts 96°
2026-05-04 03:25 -25.85515 144.09107 37049 ft 556 kts 96°
2026-05-04 03:26 -25.86890 144.17492 37052 ft 555 kts 96°
2026-05-04 03:26 -25.88271 144.25945 37039 ft 556 kts 96°
2026-05-04 03:27 -25.89646 144.34391 37047 ft 555 kts 96°
2026-05-04 03:27 -25.91012 144.42835 37049 ft 555 kts 96°
2026-05-04 03:28 -25.92371 144.51291 37039 ft 555 kts 96°
2026-05-04 03:28 -25.93715 144.59679 37047 ft 555 kts 96°
2026-05-04 03:29 -25.95066 144.68135 37046 ft 556 kts 96°
2026-05-04 03:29 -25.96413 144.76604 37033 ft 556 kts 96°
2026-05-04 03:30 -25.97755 144.85070 37043 ft 555 kts 96°
2026-05-04 03:30 -25.99082 144.93475 37048 ft 555 kts 96°
2026-05-04 03:31 -26.00412 145.01934 37048 ft 555 kts 96°
2026-05-04 03:31 -26.01737 145.10399 37047 ft 555 kts 96°
2026-05-04 03:32 -26.03061 145.18881 37045 ft 555 kts 96°
2026-05-04 03:32 -26.04368 145.27294 37046 ft 555 kts 96°
2026-05-04 03:33 -26.05677 145.35748 37046 ft 555 kts 96°
2026-05-04 03:33 -26.06981 145.44208 37045 ft 555 kts 96°
2026-05-04 03:34 -26.08279 145.52665 37041 ft 555 kts 96°
2026-05-04 03:34 -26.09573 145.61127 37045 ft 554 kts 96°
2026-05-04 03:35 -26.10862 145.69587 37037 ft 554 kts 96°
2026-05-04 03:35 -26.12145 145.78047 37035 ft 555 kts 96°
2026-05-04 03:36 -26.13425 145.86519 37043 ft 554 kts 96°
2026-05-04 03:36 -26.14699 145.94987 37045 ft 554 kts 96°
2026-05-04 03:37 -26.15966 146.03446 37041 ft 554 kts 96°
2026-05-04 03:37 -26.17229 146.11910 37039 ft 554 kts 96°
2026-05-04 03:38 -26.18478 146.20312 37043 ft 554 kts 96°
2026-05-04 03:38 -26.19733 146.28790 37041 ft 554 kts 96°
2026-05-04 03:39 -26.20980 146.37252 37042 ft 554 kts 96°
2026-05-04 03:39 -26.22224 146.45730 37037 ft 554 kts 96°
2026-05-04 03:40 -26.23453 146.54143 37048 ft 554 kts 96°
2026-05-04 03:40 -26.24687 146.62623 37043 ft 554 kts 96°
2026-05-04 03:41 -26.25916 146.71102 37046 ft 554 kts 95°
2026-05-04 03:41 -26.27140 146.79586 37045 ft 554 kts 95°
2026-05-04 03:42 -26.28358 146.88060 37044 ft 554 kts 96°
2026-05-04 03:42 -26.29571 146.96540 37047 ft 553 kts 95°
2026-05-04 03:43 -26.30777 147.05012 37043 ft 553 kts 95°
2026-05-04 03:43 -26.31972 147.13437 37036 ft 553 kts 95°
2026-05-04 03:44 -26.33168 147.21907 37038 ft 553 kts 95°
2026-05-04 03:44 -26.34359 147.30380 37036 ft 553 kts 95°
2026-05-04 03:45 -26.35545 147.38852 37038 ft 553 kts 95°
2026-05-04 03:45 -26.36726 147.47322 37039 ft 553 kts 95°
2026-05-04 03:46 -26.37900 147.55786 37032 ft 552 kts 95°
2026-05-04 03:46 -26.39069 147.64252 37029 ft 552 kts 95°
2026-05-04 03:47 -26.40228 147.72676 37030 ft 552 kts 96°
2026-05-04 03:47 -26.41387 147.81145 37021 ft 552 kts 95°
2026-05-04 03:48 -26.42540 147.89606 37011 ft 551 kts 95°
2026-05-04 03:48 -26.43688 147.98069 37025 ft 550 kts 96°
2026-05-04 03:49 -26.44829 148.06512 37018 ft 550 kts 95°
2026-05-04 03:49 -26.45955 148.14892 37031 ft 549 kts 95°
2026-05-04 03:50 -26.47085 148.23334 37018 ft 549 kts 96°
2026-05-04 03:50 -26.48208 148.31769 37029 ft 549 kts 95°
2026-05-04 03:51 -26.49325 148.40193 37019 ft 549 kts 95°
2026-05-04 03:51 -26.50250 148.47200 37024 ft 549 kts 95°
2026-05-04 03:52 -26.51539 148.57009 37030 ft 548 kts 95°
2026-05-04 03:52 -26.52463 148.64068 37031 ft 548 kts 95°
2026-05-04 03:53 -26.53562 148.72505 37035 ft 549 kts 95°
2026-05-04 03:53 -26.53861 148.80902 37035 ft 540 kts 79°
2026-05-04 03:54 -26.52513 148.89073 37037 ft 534 kts 71°
2026-05-04 03:54 -26.50957 148.97173 37040 ft 534 kts 71°
2026-05-04 03:55 -26.49444 149.05295 37047 ft 535 kts 72°
2026-05-04 03:55 -26.47970 149.13450 37041 ft 536 kts 72°
2026-05-04 03:56 -26.46505 149.21604 37038 ft 536 kts 72°
2026-05-04 03:56 -26.45029 149.29772 37044 ft 536 kts 72°
2026-05-04 03:57 -26.43547 149.37926 37044 ft 536 kts 72°
2026-05-04 03:57 -26.42067 149.46033 37044 ft 536 kts 72°
2026-05-04 03:58 -26.39827 149.58251 37042 ft 536 kts 72°
2026-05-04 03:58 -26.38329 149.66395 37044 ft 536 kts 72°
2026-05-04 03:59 -26.36827 149.74527 37045 ft 535 kts 72°
2026-05-04 03:59 -26.35320 149.82665 37024 ft 535 kts 72°
2026-05-04 04:00 -26.33819 149.90739 37034 ft 534 kts 72°
2026-05-04 04:00 -26.32307 149.98849 37042 ft 534 kts 72°
2026-05-04 04:01 -26.30791 150.06954 37046 ft 533 kts 72°
2026-05-04 04:01 -26.29273 150.15040 37045 ft 533 kts 72°
2026-05-04 04:02 -26.27749 150.23132 37042 ft 533 kts 72°
2026-05-04 04:02 -26.26223 150.31212 37044 ft 533 kts 72°
2026-05-04 04:03 -26.24692 150.39288 37041 ft 533 kts 72°
2026-05-04 04:03 -26.23157 150.47363 37039 ft 532 kts 72°
2026-05-04 04:04 -26.21626 150.55389 37043 ft 532 kts 72°
2026-05-04 04:04 -26.20082 150.63461 37045 ft 532 kts 72°
2026-05-04 04:05 -26.18534 150.71526 37054 ft 533 kts 72°
2026-05-04 04:05 -26.16983 150.79589 37047 ft 533 kts 73°
2026-05-04 04:06 -26.15646 150.87720 37038 ft 539 kts 83°
2026-05-04 04:06 -26.16236 150.96055 37057 ft 544 kts 103°
2026-05-04 04:07 -26.18670 151.03975 37061 ft 544 kts 112°
2026-05-04 04:07 -26.21418 151.11844 37051 ft 544 kts 112°
2026-05-04 04:08 -26.24099 151.19726 37056 ft 545 kts 111°
2026-05-04 04:08 -26.26720 151.27648 37066 ft 545 kts 111°
2026-05-04 04:09 -26.29321 151.35575 37040 ft 539 kts 111°
2026-05-04 04:09 -26.30587 151.39440 37026 ft 523 kts 111°
2026-05-04 04:09 -26.31801 151.43146 37016 ft 508 kts 111°
2026-05-04 04:10 -26.33005 151.46816 36677 ft 503 kts 111°
2026-05-04 04:10 -26.34216 151.50506 35667 ft 514 kts 111°
2026-05-04 04:10 -26.35463 151.54302 34605 ft 527 kts 111°
2026-05-04 04:10 -26.36727 151.58159 33719 ft 532 kts 111°
2026-05-04 04:11 -26.38000 151.62053 32774 ft 536 kts 111°
2026-05-04 04:11 -26.39275 151.65959 32050 ft 534 kts 111°
2026-05-04 04:11 -26.40539 151.69837 31404 ft 530 kts 110°
2026-05-04 04:11 -26.41803 151.73717 30395 ft 534 kts 110°
2026-05-04 04:12 -26.43076 151.77628 29402 ft 535 kts 110°
2026-05-04 04:12 -26.44338 151.81512 28641 ft 530 kts 110°
2026-05-04 04:12 -26.45584 151.85346 28002 ft 521 kts 110°
2026-05-04 04:12 -26.46817 151.89146 27027 ft 521 kts 110°
2026-05-04 04:13 -26.48049 151.92947 26110 ft 519 kts 110°
2026-05-04 04:13 -26.49278 151.96651 25438 ft 512 kts 110°
2026-05-04 04:13 -26.50535 152.00337 25048 ft 498 kts 111°
2026-05-04 04:13 -26.51749 152.03867 24960 ft 478 kts 111°
2026-05-04 04:14 -26.52923 152.07280 24586 ft 467 kts 111°
2026-05-04 04:14 -26.54081 152.10665 23976 ft 465 kts 111°
2026-05-04 04:14 -26.55228 152.14031 23304 ft 462 kts 110°
2026-05-04 04:14 -26.56356 152.17355 22648 ft 452 kts 110°
2026-05-04 04:15 -26.57454 152.20596 22051 ft 440 kts 110°
2026-05-04 04:15 -26.58522 152.23754 21469 ft 430 kts 110°
2026-05-04 04:15 -26.59575 152.26867 20932 ft 427 kts 110°
2026-05-04 04:15 -26.60619 152.29957 20374 ft 424 kts 110°
2026-05-04 04:16 -26.61657 152.33030 19787 ft 422 kts 110°
2026-05-04 04:16 -26.62762 152.36010 19219 ft 420 kts 117°
2026-05-04 04:16 -26.64295 152.38775 18700 ft 416 kts 127°
2026-05-04 04:16 -26.66167 152.41194 18295 ft 408 kts 137°
2026-05-04 04:17 -26.68233 152.43347 17728 ft 405 kts 139°
2026-05-04 04:17 -26.70317 152.45447 17150 ft 402 kts 139°
2026-05-04 04:17 -26.72387 152.47528 16589 ft 398 kts 139°
2026-05-04 04:17 -26.74433 152.49603 16028 ft 395 kts 139°
2026-05-04 04:18 -26.76452 152.51669 15478 ft 392 kts 138°
2026-05-04 04:18 -26.78451 152.53727 14927 ft 389 kts 138°
2026-05-04 04:18 -26.80428 152.55777 14365 ft 386 kts 137°
2026-05-04 04:18 -26.82378 152.57827 13794 ft 383 kts 138°
2026-05-04 04:19 -26.84338 152.59836 13189 ft 380 kts 138°
2026-05-04 04:19 -26.86269 152.61822 12630 ft 375 kts 137°
2026-05-04 04:19 -26.88174 152.63790 12127 ft 369 kts 137°
2026-05-04 04:19 -26.90029 152.65714 11730 ft 360 kts 137°
2026-05-04 04:20 -26.91854 152.67608 11237 ft 355 kts 137°
2026-05-04 04:20 -26.93637 152.69458 10725 ft 352 kts 138°
2026-05-04 04:20 -26.95406 152.71296 10501 ft 340 kts 138°
2026-05-04 04:20 -26.97107 152.73061 10323 ft 326 kts 138°
2026-05-04 04:21 -26.98749 152.74739 10198 ft 312 kts 139°
2026-05-04 04:21 -27.00319 152.76354 10064 ft 299 kts 137°
2026-05-04 04:21 -27.01811 152.77893 9799 ft 291 kts 138°
2026-05-04 04:21 -27.03323 152.79442 9277 ft 294 kts 137°
2026-05-04 04:22 -27.04826 152.80985 8842 ft 289 kts 137°
2026-05-04 04:22 -27.06287 152.82489 8470 ft 281 kts 137°
2026-05-04 04:22 -27.07713 152.83959 8131 ft 277 kts 136°
2026-05-04 04:22 -27.09127 152.85420 7785 ft 275 kts 137°
2026-05-04 04:23 -27.10527 152.86867 7448 ft 273 kts 136°
2026-05-04 04:23 -27.11850 152.88378 7106 ft 270 kts 122°
2026-05-04 04:23 -27.12567 152.90294 6793 ft 265 kts 104°
2026-05-04 04:23 -27.13027 152.92287 6462 ft 263 kts 103°
2026-05-04 04:24 -27.13472 152.94270 6096 ft 261 kts 103°
2026-05-04 04:24 -27.13907 152.96239 5748 ft 259 kts 103°
2026-05-04 04:24 -27.14324 152.98201 5413 ft 258 kts 103°
2026-05-04 04:24 -27.14740 153.00154 5154 ft 253 kts 103°
2026-05-04 04:25 -27.15139 153.02018 5015 ft 244 kts 103°
2026-05-04 04:25 -27.15535 153.03866 4762 ft 243 kts 103°
2026-05-04 04:25 -27.15930 153.05708 4517 ft 241 kts 103°
2026-05-04 04:25 -27.16320 153.07521 4258 ft 237 kts 103°
2026-05-04 04:26 -27.16700 153.09293 4030 ft 234 kts 103°
2026-05-04 04:26 -27.17079 153.11060 3779 ft 231 kts 103°
2026-05-04 04:26 -27.17457 153.12801 3554 ft 228 kts 106°
2026-05-04 04:26 -27.18235 153.14306 3328 ft 222 kts 138°
2026-05-04 04:27 -27.19557 153.15125 3094 ft 216 kts 162°
2026-05-04 04:27 -27.21000 153.15451 2863 ft 206 kts 168°
2026-05-04 04:27 -27.22382 153.15704 2623 ft 197 kts 169°
2026-05-04 04:27 -27.23723 153.15950 2375 ft 192 kts 169°
2026-05-04 04:28 -27.25018 153.16193 2140 ft 186 kts 168°
2026-05-04 04:28 -27.26253 153.16426 1936 ft 172 kts 168°
2026-05-04 04:28 -27.27392 153.16533 1744 ft 158 kts 182°
2026-05-04 04:28 -27.28417 153.16196 1602 ft 157 kts 199°
2026-05-04 04:29 -27.29446 153.15722 1384 ft 158 kts 202°
2026-05-04 04:29 -27.30392 153.15204 1216 ft 146 kts 205°
2026-05-04 04:29 -27.31265 153.14706 999 ft 135 kts 205°
2026-05-04 04:29 -27.32084 153.14230 799 ft 134 kts 207°
2026-05-04 04:30 -27.32934 153.13731 575 ft 140 kts 204°
2026-05-04 04:30 -27.33792 153.13259 456 ft 140 kts 202°
2026-05-04 04:30 -27.34669 153.12759 292 ft 142 kts 203°
2026-05-04 04:30 -27.35559 153.12251 93 ft 141 kts 202°
2026-05-04 04:31 -27.36387 153.11784 22 ft 115 kts 207°
2026-05-04 04:31 -27.36951 153.11456 21 ft 65 kts 207°
2026-05-04 04:31 -27.37225 153.11334 21 ft 31 kts 187°
2026-05-04 04:31 -27.37417 153.11335 20 ft 22 kts 179°
2026-05-04 04:32 -27.37513 153.11380 21 ft 15 kts 122°
2026-05-04 04:32 -27.37489 153.11477 21 ft 16 kts 24°
2026-05-04 04:32 -27.37382 153.11536 20 ft 18 kts 27°
2026-05-04 04:32 -27.37336 153.11636 20 ft 16 kts 113°
2026-05-04 04:33 -27.37385 153.11745 20 ft 15 kts 120°
2026-05-04 04:33 -27.37433 153.11849 20 ft 15 kts 117°
2026-05-04 04:33 -27.37480 153.11954 21 ft 16 kts 118°
2026-05-04 04:33 -27.37538 153.12083 20 ft 22 kts 115°
2026-05-04 04:34 -27.37613 153.12247 20 ft 24 kts 117°
2026-05-04 04:34 -27.37687 153.12409 20 ft 23 kts 117°
2026-05-04 04:34 -27.37758 153.12566 20 ft 22 kts 117°
2026-05-04 04:34 -27.37828 153.12718 20 ft 22 kts 117°
2026-05-04 04:35 -27.37889 153.12843 21 ft 17 kts 115°
2026-05-04 04:35 -27.37967 153.12915 20 ft 16 kts 195°
2026-05-04 04:35 -27.38068 153.12861 22 ft 16 kts 207°
2026-05-04 04:35 -27.38172 153.12801 21 ft 17 kts 207°
2026-05-04 04:36 -27.38277 153.12741 21 ft 17 kts 207°
2026-05-04 04:36 -27.38391 153.12675 21 ft 20 kts 206°
2026-05-04 04:36 -27.38517 153.12604 22 ft 21 kts 207°
2026-05-04 04:36 -27.38657 153.12523 21 ft 23 kts 206°
2026-05-04 04:37 -27.38763 153.12141 22 ft 15 kts 291°
2026-05-04 04:37 -27.38711 153.12045 20 ft 12 kts 307°
2026-05-04 04:38 -27.38690 153.12015 20 ft 2 kts 307°
2026-05-04 04:38 -27.38688 153.12012 20 ft 0 kts 307°